CW4482 Weather Reports


Display with metric or nautical units.
time (UTC)temp
F
wind
direction
speed
MPH
gust
MPH
rain 1hr
in
rain 24hr
in
rain mn
in
humidity
%
barometer
mb
20260903074526 83 360 3.0 10.0 0.00 0.00 0.00 83 1012.7
20260903073013 83 360 4.0 10.0 0.00 0.00 0.00 82 1012.6
20260903071516 83 360 3.0 8.0 0.00 0.00 0.00 82 1012.7
20260903070022 83 360 5.0 9.0 0.00 0.00 0.00 81 1012.8
20260903064544 83 360 4.0 10.0 0.00 0.00 0.00 82 1012.9
20260903063010 84 360 2.0 6.0 0.00 0.00 0.00 82 1013.2
20260903061515 84 360 3.0 10.0 0.00 0.00 0.00 81 1013.3
20260903060018 84 360 2.0 5.0 0.00 0.00 0.00 80 1013.7
20260903054525 83 360 3.0 8.0 0.00 0.00 0.00 81 1013.8
20260903053027 83 360 1.0 6.0 0.00 0.00 0.00 82 1013.9
20260903051535 84 360 1.0 5.0 0.00 0.00 0.00 82 1013.9
20260903050019 84 360 2.0 5.0 0.00 0.00 0.00 81 1013.8
20260903044528 84 360 2.0 6.0 0.00 0.00 0.00 81 1013.8
20260903043012 84 360 3.0 8.0 0.00 0.00 0.00 81 1013.9
20260903041521 84 360 2.0 5.0 0.00 0.00 0.00 82 1014.1
20260903040026 84 360 2.0 5.0 0.00 0.00 0.00 82 1013.9
20260903034515 83 360 1.0 8.0 0.00 0.00 0.00 83 1013.9
20260903033018 83 360 2.0 3.0 0.00 0.00 0.00 83 1013.8
20260903031526 83 360 1.0 5.0 0.00 0.00 0.00 83 1013.9
20260903030028 82 360 1.0 4.0 0.00 0.00 0.00 83 1013.7
20260903024516 82 360 0.0 1.0 0.00 0.00 0.00 83 1013.5
20260903023040 82 360 0.0 0.0 0.00 0.00 0.00 82 1013.2
20260903021522 82 360 0.0 0.0 0.00 0.00 0.00 80 1013.0
20260903020029 83 360 0.0 1.0 0.00 0.00 0.00 78 1012.8
20260903014514 84 360 2.0 3.0 0.00 0.00 0.00 77 1013.0
20260903013021 85 360 4.0 9.0 0.00 0.00 0.00 74 1013.0
20260903011523 86 360 2.0 9.0 0.00 0.00 0.00 72 1013.0
20260903010010 87 360 1.0 2.0 0.00 0.00 0.00 71 1012.8
20260903004535 88 360 2.0 8.0 0.00 0.00 0.00 70 1012.1
20260903003023 88 360 2.0 8.0 0.00 0.00 0.00 71 1012.1
20260903001528 89 360 4.0 12.0 0.00 0.00 0.00 69 1012.0
20260903000017 89 360 6.0 13.0 0.00 0.00 0.00 69 1010.9
20260902234521 89 360 3.0 11.0 0.00 0.00 0.00 71 1010.8
20260902233026 89 360 4.0 10.0 0.00 0.00 0.00 70 1011.1
20260902231535 90 360 1.0 10.0 0.00 0.00 0.00 72 1011.2
20260902230018 90 360 3.0 8.0 0.00 0.00 0.00 71 1011.0
20260902224523 91 360 4.0 9.0 0.00 0.00 0.00 69 1010.9
20260902223028 91 360 4.0 10.0 0.00 0.00 0.00 70 1011.1
20260902221517 92 360 3.0 11.0 0.00 0.00 0.00 69 1011.4
20260902220018 93 360 3.0 8.0 0.00 0.00 0.00 66 1011.3
20260902214524 95 360 4.0 10.0 0.00 0.00 0.00 62 1011.4
20260902213027 97 360 6.0 13.0 0.00 0.00 0.00 52 1011.4
20260902211516 99 360 5.0 11.0 0.00 0.00 0.00 50 1011.5
20260902210019 99 360 4.0 13.0 0.00 0.00 0.00 49 1011.6
20260902204526 99 360 4.0 17.0 0.00 0.00 0.00 50 1011.6
20260902203010 97 360 5.0 10.0 0.00 0.00 0.00 53 1011.9
20260902201519 96 360 3.0 12.0 0.00 0.00 0.00 54 1012.0
20260902200017 97 360 5.0 12.0 0.00 0.00 0.00 55 1012.1
20260902194525 97 360 2.0 12.0 0.00 0.00 0.00 55 1012.4
20260902193026 96 360 2.0 9.0 0.00 0.00 0.00 63 1012.7
20260902191515 94 360 2.0 8.0 0.00 0.00 0.00 58 1012.9
20260902190018 94 360 3.0 10.0 0.00 0.00 0.00 59 1012.9
20260902184543 93 360 3.0 8.0 0.00 0.00 0.00 60 1013.1
20260902183029 92 360 4.0 10.0 0.00 0.00 0.00 62 1013.3
20260902181513 91 360 2.0 6.0 0.00 0.00 0.00 64 1013.7
20260902180018 91 360 2.0 6.0 0.00 0.00 0.00 66 1014.0
20260902174522 91 360 2.0 6.0 0.00 0.00 0.00 67 1014.2
20260902173010 91 360 3.0 9.0 0.00 0.00 0.00 68 1014.5
20260902171515 89 360 3.0 10.0 0.00 0.00 0.00 70 1014.8
20260902170017 89 360 3.0 10.0 0.00 0.00 0.00 71 1014.9
20260902164520 88 360 2.0 8.0 0.00 0.00 0.00 73 1015.0
20260902163046 87 360 3.0 8.0 0.00 0.00 0.00 74 1015.2
20260902161549 87 360 2.0 14.0 0.00 0.00 0.00 75 1015.3
20260902160017 86 360 3.0 9.0 0.00 0.00 0.00 76 1015.1
20260902154521 86 360 2.0 9.0 0.00 0.00 0.00 79 1015.0
20260902153025 85 360 3.0 10.0 0.00 0.00 0.00 79 1014.9
20260902151513 85 360 2.0 8.0 0.00 0.00 0.00 81 1014.8
20260902150036 84 360 2.0 6.0 0.00 0.00 0.00 82 1014.8
20260902144522 84 360 3.0 8.0 0.00 0.00 0.00 82 1014.7
20260902143024 83 360 3.0 11.0 0.00 0.00 0.00 83 1014.6
20260902141533 83 360 4.0 9.0 0.00 0.00 0.00 84 1014.7
20260902140013 82 360 2.0 12.0 0.00 0.00 0.00 84 1014.6
20260902134521 82 360 1.0 10.0 0.00 0.00 0.00 84 1014.6
20260902133026 82 360 2.0 6.0 0.00 0.00 0.00 85 1014.5
20260902131515 82 360 2.0 10.0 0.00 0.00 0.00 85 1014.3
20260902130020 82 360 0.0 8.0 0.00 0.00 0.00 85 1014.2
20260902124528 82 360 1.0 8.0 0.00 0.00 0.00 85 1014.1
20260902123031 82 360 3.0 9.0 0.00 0.00 0.00 85 1013.8
20260902121534 82 360 2.0 9.0 0.00 0.00 0.00 85 1013.2
20260902120019 82 360 4.0 10.0 0.00 0.00 0.00 85 1012.7
20260902114543 82 360 4.0 12.0 0.00 0.00 0.00 85 1012.7
20260902113028 82 360 4.0 10.0 0.00 0.00 0.00 85 1012.8
20260902111512 82 360 3.0 6.0 0.00 0.00 0.00 85 1012.7
20260902110019 82 360 3.0 10.0 0.00 0.00 0.00 85 1012.6
20260902104523 82 360 3.0 9.0 0.00 0.00 0.00 85 1012.7
20260902103032 82 360 2.0 9.0 0.00 0.00 0.00 85 1012.8
20260902101536 82 360 2.0 8.0 0.00 0.00 0.00 84 1012.9
20260902100018 82 360 3.0 10.0 0.00 0.00 0.00 84 1012.7
20260902094525 82 360 4.0 11.0 0.00 0.00 0.00 84 1012.5
20260902093010 82 360 4.0 15.0 0.00 0.00 0.00 84 1012.5
20260902091538 82 360 4.0 16.0 0.00 0.00 0.00 84 1012.5
20260902090019 82 360 4.0 12.0 0.00 0.00 0.00 84 1012.4
20260902084527 82 360 4.0 10.0 0.00 0.00 0.00 84 1012.3
20260902083012 82 360 4.0 14.0 0.00 0.00 0.00 84 1012.3
20260902081541 81 360 3.0 8.0 0.00 0.00 0.00 84 1012.5
20260902080025 81 360 3.0 10.0 0.00 0.00 0.00 84 1012.5